Regional Weather Roundup
Issued by NWS

Home | Current Version | Previous Version | Graphics & Text | Print | Product List | Glossary On
Versions: 1 2 3 4 5 6 7 8 9 10 11 12 13 14 15 16 17 18 19 20 21 22 23 24 25 26 27 28 29 30 31 32 33 34 35 36 37 38 39 40 41 42 43 44 45 46 47 48 49 50
000
ASUS43 KLOT 070003
RWRIL

ILLINOIS REGIONAL WEATHER ROUNDUP
NATIONAL WEATHER SERVICE CHICAGO/ROMEOVILLE IL
600 PM CST SAT FEB 06 2016

NOTE: "FAIR" INDICATES FEW OR NO CLOUDS BELOW 12,000 FEET WITH NO
SIGNIFICANT WEATHER AND/OR OBSTRUCTIONS TO VISIBILITY.

* THESE STATIONS ARE NOT UNDER NWS QUALITY CONTROL. THEY ALSO MAY NOT
  REPORT WEATHER SUCH AS PRECIPITATION OR FOG.

ILZ001-002-007-009-015-016-024-070100-
NORTHWEST ILLINOIS

CITY           SKY/WX    TMP DP  RH WIND       PRES   REMARKS
MOLINE         PTCLDY    35  28  75 S3        30.13F
6HR MIN TEMP:  35; 6HR MAX TEMP:  45;

STERLING*      CLEAR     34  27  75 NW5       30.11S WCI  30
$$

ILZ003-004-008-010-011-017-018-070100-
NORTH CENTRAL ILLINOIS

CITY           SKY/WX    TMP DP  RH WIND       PRES   REMARKS
ROCKFORD       PTCLDY    35  27  72 W3        30.15S
6HR MIN TEMP:  34; 6HR MAX TEMP:  41;

FREEPORT*      CLEAR     31  29  90 W7        30.14S WCI  24
$$

ILZ005-006-012>014-019>023-070100-
NORTHEAST ILLINOIS

CITY           SKY/WX    TMP DP  RH WIND       PRES   REMARKS
CHICAGO-OHARE  PTCLDY    37  28  70 SW7       30.14S WCI  32
6HR MIN TEMP:  34; 6HR MAX TEMP:  41;

CHICAGO-MIDWAY PTCLDY    39  27  62 SW5       30.15S
6HR MIN TEMP:  37; 6HR MAX TEMP:  42;

AURORA         CLEAR     34  27  75 S3        30.14S
6HR MIN TEMP:  34; 6HR MAX TEMP:  42;

LANSING*       CLEAR     33  28  81 S5        30.17R WCI  28
WAUKEGAN       CLEAR     33  27  78 SW7       30.12S WCI  27
6HR MIN TEMP:  32; 6HR MAX TEMP:  39;

DUPAGE AIRPORT CLEAR     34  25  69 S5        30.13S WCI  30
6HR MIN TEMP:  33; 6HR MAX TEMP:  40;

WHEELING       CLEAR     38  28  67 SW6       30.15S WCI  33
6HR MIN TEMP:  35; 6HR MAX TEMP:  41;

NORTHERLY ISL    N/A     40  27  60 S3          N/A
$$

LMZ740>746-070100-
SOUTHERN LAKE MICHIGAN

STATION/POSITION SKY/WX   TEMP    WIND        PRES    VSBY  WAVE
                          AIR SEA DIR/SP/G                  HT/PER
                          (F)     (DEG/KT/KT) (MB)    (MI)  (FT/S)
HARRISON CRIB              41     220/ 16/ 18   N/A
BURNHAM HARBOR             40     200/  3/  9   N/A
CALUMET HARBOR             40     180/  5/  8 1020.4F
BURNS HARBOR               39     210/  7/ 12 1022.0F
MICHIGAN CITY              39     180/ 10/ 12   N/A
$$

ILZ025>027-034>036-040-047-049-050-058-095>099-070100-
WEST-CENTRAL ILLINOIS

CITY           SKY/WX    TMP DP  RH WIND       PRES   REMARKS
QUINCY         CLEAR     43  25  49 W8        30.16S
MACOMB*        CLEAR     38  29  67 SW6       30.17S WCI  34
$$

ILZ028>032-037-038-041>044-048-051>054-059>061-070100-
CENTRAL ILLINOIS

CITY           SKY/WX    TMP DP  RH WIND       PRES   REMARKS
BLOOMINGTON    CLEAR     35  31  86 SW6       30.17S WCI  30
DECATUR        CLEAR     40  31  70 SW8       30.18S
PEORIA         CLEAR     38  25  59 SW7       30.16S WCI  33
6HR MIN TEMP:  38; 6HR MAX TEMP:  47;

SPRINGFIELD    CLEAR     45  32  60 CALM      30.18S
6HR MIN TEMP:  44; 6HR MAX TEMP:  51;

TAYLORVILLE    NOT AVBL
$$

ILZ033-039-045-046-055>057-062-063-070100-
EAST-CENTRAL ILLINOIS

CITY           SKY/WX    TMP DP  RH WIND       PRES   REMARKS
CHAMPAIGN      CLEAR     36  30  79 S8        30.18S WCI  30
MATTOON        CLEAR     44  28  53 SW6       30.19S
$$

ILZ079-100>102-070100-
SOUTHWEST ILLINOIS

CITY           SKY/WX    TMP DP  RH WIND       PRES   REMARKS
ALTON          CLEAR     46  28  49 SW7       30.19F
CAHOKIA*       CLEAR     51  25  36 S3        30.20S
SPARTA*        MOCLDY    50  24  36 S5        30.22F
$$

ILZ064>066-069>071-074>076-080>082-084>086-088>090-092>094-070100-
SOUTH-CENTRAL ILLINOIS

CITY           SKY/WX    TMP DP  RH WIND       PRES   REMARKS
CARBONDALE     CLEAR     42  22  44 S9        30.24S
6HR MIN TEMP:  42; 6HR MAX TEMP:  56;

MARION         CLEAR     46  21  36 S8        30.25S
MT. VERNON     CLEAR     45  21  39 CALM      30.23S
CENTRALIA*     CLEAR     43  30  60 S6        30.21S
SALEM*         CLEAR     47  26  43 S3        30.21S
$$

ILZ067-068-072-073-078-083-087-091-070100-
SOUTHEAST ILLINOIS

CITY           SKY/WX    TMP DP  RH WIND       PRES   REMARKS
LAWRENCEVILLE  CLEAR     40  27  59 S7        30.24S
HARRISBURG*    CLEAR     47  25  42 SW5       30.25S
ROBINSON*      CLEAR     38  27  62 S5        30.23F WCI  35
CARMI*         CLEAR     46  23  40 S3        30.24S
$$

ABBREVIATIONS USED IN REMARKS
   TC - TEMPERATURE IN CELSIUS
  WCI - WIND CHILL INDEX
   HX - HEAT INDEX
  VSB - VISIBILITY
$$




USA.gov is the U.S. government's official web portal to all federal, state and local government web resources and services.